Weather reports worldwide

Advertisment
Topcliffe, United Kingdom (3265): temperature & dewpoint: 20.05.2019 01:00:00 - 26.05.2019 01:00:00 (BST)Topcliffe, United Kingdom (3265): wind speed & gusts: 20.05.2019 01:00:00 - 26.05.2019 01:00:00 (BST)Topcliffe, United Kingdom (3265): wind direction: 20.05.2019 01:00:00 - 26.05.2019 01:00:00 (BST)Topcliffe, United Kingdom (3265): reduced air pressure: 20.05.2019 01:00:00 - 26.05.2019 01:00:00 (BST)Topcliffe, United Kingdom (3265): visibility: 20.05.2019 01:00:00 - 26.05.2019 01:00:00 (BST)Topcliffe, United Kingdom (3265): precipitation: 20.05.2019 01:00:00 - 26.05.2019 01:00:00 (BST)
Date & Time tt [°C] td [°C] ff [km/h] ff [kn] fx [km/h] fx [kn] dd ppp [hPa] vv [km] rr [mm]
26.05.2019 01:00:00 - - - - - - - - - 0,0
26.05.2019 00:00:00 14,2 12,8 11 6 - - SSW 1013,8 22 0,0
25.05.2019 23:00:00 13,6 12,3 16 9 - - SW 1014,1 16 0,0
25.05.2019 22:00:00 13,7 12,0 15 8 - - W 1014,7 45 0,0
25.05.2019 21:00:00 13,4 12,1 8 4 - - SSW 1014,8 45 0,0
25.05.2019 20:00:00 13,1 12,1 9 5 - - SW 1015,3 21 0,4
25.05.2019 19:00:00 13,2 12,0 9 5 - - SW 1015,9 12 1,0
25.05.2019 18:00:00 13,5 11,8 11 6 - - SW 1016,2 9 1,0
25.05.2019 17:00:00 14,6 9,6 22 12 - - W 1016,8 35 0,0
25.05.2019 16:00:00 17,6 7,9 18 10 - - W 1016,5 40 0,0
25.05.2019 15:00:00 17,0 6,1 24 13 - - W 1016,8 35 0,0
25.05.2019 14:00:00 18,7 5,6 21 11 - - W 1016,6 30 0,0
25.05.2019 13:00:00 17,7 9,1 9 5 - - SE 1017,1 40 0,0
25.05.2019 12:00:00 16,3 8,6 8 4 - - SSE 1017,4 30 0,0
25.05.2019 11:00:00 16,1 8,0 5 3 - - WSW 1017,9 30 0,0
25.05.2019 10:00:00 14,4 7,7 8 4 - - NW 1018,3 50 0,0
25.05.2019 09:00:00 12,9 6,9 13 7 - - NNW 1018,4 23 0,0
25.05.2019 08:00:00 11,3 6,7 13 7 - - NW 1018,3 35 0,0
25.05.2019 07:00:00 10,0 6,9 11 6 - - NNW 1018,3 30 0,0
25.05.2019 06:00:00 8,2 5,9 9 5 - - NNW 1018,1 35 0,0
25.05.2019 05:00:00 8,0 6,3 9 5 - - NW 1017,8 50 0,0
25.05.2019 04:00:00 6,8 6,0 5 3 - - NNE 1017,7 45 0,0
25.05.2019 03:00:00 7,8 5,4 5 3 - - NNW 1017,7 45 0,0
25.05.2019 02:00:00 9,9 7,1 11 6 - - W 1017,8 50 0,0
25.05.2019 01:00:00 11,2 7,8 15 8 - - NW 1017,5 45 0,0
25.05.2019 00:00:00 12,0 8,5 5 3 - - WNW 1017,5 45 0,0
24.05.2019 23:00:00 11,7 8,1 5 3 - - WNW 1017,4 45 0,0
24.05.2019 22:00:00 13,2 8,6 11 6 - - WSW 1017,0 50 0,0
24.05.2019 21:00:00 15,3 8,5 16 9 - - W 1016,5 50 0,0
24.05.2019 20:00:00 17,0 8,9 22 12 - - W 1016,1 50 0,0
24.05.2019 19:00:00 18,2 8,6 26 14 - - WNW 1015,9 45 0,0
24.05.2019 18:00:00 19,0 9,2 22 12 - - W 1015,6 50 0,0
24.05.2019 17:00:00 20,5 9,1 24 13 - - WNW 1015,3 40 0,0
24.05.2019 16:00:00 20,8 6,4 22 12 - - NW 1015,3 10 0,0
24.05.2019 15:00:00 20,9 6,8 21 11 - - NW 1015,4 30 0,0
24.05.2019 14:00:00 20,5 7,5 15 8 - - NW 1015,4 25 0,0
24.05.2019 13:00:00 19,2 5,8 16 9 - - W 1015,5 10 0,0
24.05.2019 12:00:00 18,1 5,2 15 8 - - WNW 1015,7 40 0,0
24.05.2019 11:00:00 16,9 7,4 11 6 - - N 1015,9 10 0,0
24.05.2019 10:00:00 15,1 6,1 5 3 - - NNW 1015,9 10 0,0
24.05.2019 09:00:00 13,1 5,0 4 2 - - ENE 1016,0 10 0,0
24.05.2019 08:00:00 11,1 5,1 5 3 - - NNW 1015,8 35 0,0
24.05.2019 07:00:00 9,6 4,1 5 3 - - NNE 1015,5 45 0,0
24.05.2019 06:00:00 7,5 1,3 11 6 - - N 1015,3 50 0,0
24.05.2019 05:00:00 2,9 2,2 11 6 - - N 1015,1 50 0,0
24.05.2019 04:00:00 3,8 3,6 8 4 - - E 1015,0 14 0,0
24.05.2019 03:00:00 1,3 0,1 11 6 - - E 1015,0 5 0,0
24.05.2019 02:00:00 4,1 2,9 5 3 - - SE 1014,8 7 0,0
24.05.2019 01:00:00 9,3 6,5 11 6 - - WSW 1014,9 40 0,0
24.05.2019 00:00:00 7,0 5,9 9 5 - - SSW 1015,2 15 0,0
23.05.2019 23:00:00 9,9 6,4 8 4 - - WSW 1015,3 28 0,0
23.05.2019 22:00:00 12,3 7,3 11 6 - - W 1015,1 50 0,0
23.05.2019 21:00:00 14,4 8,0 13 7 - - W 1014,9 50 0,0
23.05.2019 20:00:00 16,2 7,7 18 10 - - W 1014,4 50 0,0
23.05.2019 19:00:00 16,7 8,0 22 12 - - W 1014,3 45 0,0
23.05.2019 18:00:00 16,7 7,8 22 12 - - W 1014,5 40 0,0
23.05.2019 17:00:00 17,2 8,4 28 15 - - W 1014,4 30 0,0
23.05.2019 16:00:00 17,0 8,4 24 13 - - W 1014,5 29 0,0
23.05.2019 15:00:00 16,4 8,4 21 11 - - W 1014,7 30 0,0
23.05.2019 14:00:00 16,6 7,6 26 14 - - WSW 1015,0 35 0,0
23.05.2019 13:00:00 16,7 9,2 16 9 - - WSW 1015,3 45 0,0
23.05.2019 12:00:00 15,0 8,7 21 11 - - WSW 1015,7 45 0,0
23.05.2019 11:00:00 13,8 8,6 21 11 - - WSW 1015,7 35 0,0
23.05.2019 10:00:00 13,3 8,2 21 11 - - SW 1016,0 35 0,0
23.05.2019 09:00:00 13,0 6,1 18 10 - - WSW 1015,9 50 0,0
23.05.2019 08:00:00 12,9 6,7 18 10 - - WSW 1016,0 30 0,0
23.05.2019 07:00:00 7,7 6,2 8 4 - - SE 1015,9 40 0,0
23.05.2019 06:00:00 3,3 2,4 8 4 - - E 1015,9 25 0,0
23.05.2019 05:00:00 3,9 2,8 9 5 - - S 1016,0 35 0,0
23.05.2019 04:00:00 2,2 1,2 8 4 - - E 1016,4 50 0,0
23.05.2019 03:00:00 3,6 2,2 5 3 - - SSE 1016,5 50 0,0
23.05.2019 02:00:00 3,1 -0,5 4 2 - - E 1016,7 50 0,0
23.05.2019 01:00:00 5,6 3,0 4 2 - - ENE 1016,9 50 0,0
23.05.2019 00:00:00 5,8 1,7 5 3 - - SE 1017,0 50 0,0
22.05.2019 23:00:00 9,6 1,9 5 3 - - W 1017,0 50 0,0
22.05.2019 22:00:00 11,4 3,6 11 6 - - W 1016,8 50 0,0
22.05.2019 21:00:00 12,9 4,5 9 5 - - WSW 1016,9 50 0,0
22.05.2019 20:00:00 14,7 5,3 16 9 - - W 1016,7 50 0,0
22.05.2019 19:00:00 16,8 5,7 22 12 - - W 1016,7 27 0,0
22.05.2019 18:00:00 17,2 5,9 26 14 - - W 1016,7 50 0,0
22.05.2019 17:00:00 18,2 5,4 28 15 - - WSW 1016,8 30 0,0
22.05.2019 16:00:00 18,2 5,2 26 14 - - W 1016,9 10 0,0
22.05.2019 15:00:00 18,2 4,9 28 15 50 27 W 1017,1 40 0,0
22.05.2019 14:00:00 18,4 5,0 26 14 - - W 1017,2 45 0,0
22.05.2019 13:00:00 18,0 4,8 26 14 - - W 1017,4 10 0,0
22.05.2019 12:00:00 17,0 5,7 24 13 - - W 1017,6 30 0,0
22.05.2019 11:00:00 15,3 5,4 24 13 - - W 1018,0 10 0,0
22.05.2019 10:00:00 14,5 7,1 21 11 - - WSW 1018,0 10 0,0
22.05.2019 09:00:00 12,9 7,0 9 5 - - SW 1018,3 10 0,0
22.05.2019 08:00:00 9,7 5,5 2 1 - - N 1018,8 30 0,0
22.05.2019 07:00:00 6,6 4,8 2 1 - - SE 1018,9 50 0,0
22.05.2019 06:00:00 6,0 4,0 5 3 - - W 1018,9 45 0,0
22.05.2019 05:00:00 2,0 1,1 4 2 - - NNE 1019,0 21 0,0
22.05.2019 04:00:00 2,7 2,2 5 3 - - E 1019,4 25 0,0
22.05.2019 03:00:00 3,6 2,3 4 2 - - SE 1019,4 50 0,0
22.05.2019 02:00:00 5,0 3,6 4 2 - - E 1019,5 50 0,0
22.05.2019 01:00:00 8,6 4,3 8 4 - - WNW 1019,5 50 0,0
22.05.2019 00:00:00 8,5 6,3 5 3 - - WNW 1019,4 45 0,0
21.05.2019 23:00:00 9,8 6,0 9 5 - - NW 1019,3 50 0,0
21.05.2019 22:00:00 11,3 5,5 11 6 - - WNW 1019,0 50 0,0
21.05.2019 21:00:00 13,5 5,7 15 8 - - W 1018,5 50 0,0
21.05.2019 20:00:00 15,4 5,7 21 11 - - W 1018,2 45 0,0
21.05.2019 19:00:00 17,4 7,3 21 11 - - WNW 1017,9 35 0,0
21.05.2019 18:00:00 16,9 9,3 11 6 - - NNW 1017,8 45 0,0
21.05.2019 17:00:00 18,2 8,4 8 4 - - NNW 1017,6 28 0,0
21.05.2019 16:00:00 17,2 7,9 13 7 - - NNE 1017,7 45 0,0
21.05.2019 15:00:00 17,1 7,4 15 8 - - NW 1018,0 45 0,0
21.05.2019 14:00:00 18,0 7,2 9 5 - - WNW 1017,7 24 0,0
21.05.2019 13:00:00 17,2 7,3 15 8 - - WNW 1017,9 45 0,0
21.05.2019 12:00:00 16,5 8,3 8 4 - - WNW 1017,9 40 0,0
21.05.2019 11:00:00 15,1 8,5 11 6 - - NNW 1018,0 30 0,0
21.05.2019 10:00:00 14,2 8,4 15 8 - - NNW 1018,1 23 0,0
21.05.2019 09:00:00 12,6 8,4 5 3 - - NNW 1017,9 40 0,0
21.05.2019 08:00:00 11,2 7,7 13 7 - - NW 1017,3 30 0,0
21.05.2019 07:00:00 9,1 6,5 9 5 - - NW 1017,2 30 0,0
21.05.2019 06:00:00 8,0 6,0 11 6 - - NW 1016,8 50 0,0
21.05.2019 05:00:00 6,9 5,5 8 4 - - N 1016,8 45 0,0
21.05.2019 04:00:00 6,3 5,7 8 4 - - NNE 1016,4 50 0,0
21.05.2019 03:00:00 7,3 6,1 9 5 - - NNW 1016,1 50 0,0
21.05.2019 02:00:00 5,3 4,6 5 3 - - N 1016,3 40 0,0
21.05.2019 01:00:00 6,1 4,5 4 2 - - NW 1016,0 50 0,0
21.05.2019 00:00:00 6,5 3,2 5 3 - - N 1015,9 50 0,0
20.05.2019 23:00:00 10,7 7,5 13 7 - - WNW 1015,6 50 0,0
20.05.2019 22:00:00 12,7 8,4 11 6 - - W 1015,3 45 0,0
20.05.2019 21:00:00 12,7 8,3 5 3 - - WSW 1014,6 50 0,0
20.05.2019 20:00:00 15,6 9,0 4 2 - - NNW 1014,3 50 0,0
20.05.2019 19:00:00 14,4 9,0 8 4 - - N 1014,2 50 0,0
20.05.2019 18:00:00 14,4 9,1 9 5 - - NNW 1013,9 50 0,0
20.05.2019 17:00:00 15,2 9,4 13 7 - - WNW 1013,7 35 0,0
20.05.2019 16:00:00 14,7 8,8 13 7 - - N 1013,7 45 0,0
20.05.2019 15:00:00 17,0 8,2 9 5 - - W 1013,2 10 0,0
20.05.2019 14:00:00 16,5 9,1 9 5 - - WSW 1013,0 10 0,0
20.05.2019 13:00:00 16,3 8,4 9 5 - - WNW 1013,0 50 0,0
20.05.2019 12:00:00 17,2 8,5 9 5 - - NW 1012,8 40 0,0
20.05.2019 11:00:00 16,2 9,1 13 7 - - NNW 1012,8 10 0,0
20.05.2019 10:00:00 15,4 10,0 13 7 - - N 1012,8 10 0,0
20.05.2019 09:00:00 13,8 9,7 16 9 - - NW 1013,0 10 0,0
20.05.2019 08:00:00 11,6 9,3 8 4 - - N 1012,8 29 0,0
20.05.2019 07:00:00 8,3 7,5 4 2 - - WNW 1012,4 23 0,0
20.05.2019 06:00:00 7,1 6,1 5 3 - - NW 1012,3 18 0,0
20.05.2019 05:00:00 7,3 6,3 8 4 - - NW 1012,1 20 0,0
20.05.2019 04:00:00 8,5 7,0 5 3 - - NNW 1012,1 30 0,0
20.05.2019 03:00:00 8,6 7,1 9 5 - - NNW 1012,1 30 0,0
20.05.2019 02:00:00 9,0 7,1 13 7 - - NNW 1012,1 45 0,0
20.05.2019 01:00:00 8,1 6,3 8 4 - - N 1012,2 28 0,0

tt = temperature
td = dewpoint
ff = wind speed
fx = gusts
dd = wind direction
ppp = reduced air pressure
vv = visibility
rr = precipitation

Next stations